Tracking 21612 objects as of 20-Oct-2020
HD Live streaming from Space Station
objects crossing your sky now

COSMOS 2227

Track COSMOS 2227 now!
10-day predictions
COSMOS 2227 is classified as:


NORAD ID: 22284
Int'l Code: 1992-093A
Perigee: 843.5 km
Apogee: 866.8 km
Inclination: 71.0 °
Period: 101.9 minutes
Semi major axis: 7226 km
RCS: 7.0075 m2 (large)
Launch date: December 25, 1992
Source: Commonwealth of Independent States (former USSR) (CIS)
Launch site: TYURATAM MISSILE AND SPACE COMPLEX (TTMTR)
aabbcc
Your satellite tracking list
Your tracking list is empty




NASA's NSSDC Master Catalog

Two Line Element Set (TLE):
1 22284U 92093A   20292.89426387 -.00000193 +00000-0 -77636-4 0  9991
2 22284 070.9808 198.4945 0016152 134.8943 225.3493 14.13331476434708
Source of the keplerian elements: AFSPC